Location: Bienfait
(49.1431°N, 102.8077°W)
Time: 19:40:45
(UTC+00:00)

Envisat - Pass Details

Date: 02 February 2022
Orbit: 764 x 765 km, 98.2° (Epoch: 22 May)

Event Time Altitude Azimuth Distance (km) Brightness Sun altitude
Rises 11:36:27 0° 16° (NNE) 3,243 6.5 -27.0°
Reaches altitude 10° 11:38:47 10° 20° (NNE) 2,313 5.7 -26.6°
Maximum altitude 11:43:51 64° 101° (ESE) 851 3.3 -25.8°
Drops below altitude 10° 11:48:53 10° 183° (S) 2,297 5.4 -25.0°
Sets 11:51:12 0° 187° (S) 3,219 6.1 -24.6°
